Location: Dover
(39.1580°N, 75.5250°W)
Time: 11:09:25
(UTC-04:00)

ISS - All Passes

Search period start: 30 October 2014 00:00
Search period end: 08 November 2014 23:00
Orbit: 412 x 417 km, 51.6° (Epoch: 30 October)

Date Brightness Start Highest point End Pass type
(mag) Time Alt. Az. Time Alt. Az. Time Alt. Az.
30 Oct - 09:53:41 10° S 09:56:08 19° SE 09:58:36 10° E daylight
30 Oct - 11:29:26 10° WSW 11:32:37 42° NNW 11:35:49 10° NE daylight
30 Oct - 13:08:28 10° NW 13:10:00 13° NNW 13:11:33 10° NNE daylight
30 Oct - 14:47:18 10° N 14:47:55 10° N 14:48:32 10° NNE daylight
30 Oct - 16:22:45 10° NNW 16:25:33 24° NNE 16:28:21 10° E daylight
30 Oct - 17:59:10 10° WNW 18:02:22 44° SW 18:05:33 10° SSE daylight
31 Oct - 09:06:27 10° SE 09:07:13 11° SE 09:07:58 10° ESE daylight
31 Oct - 10:40:08 10° SW 10:43:26 75° NW 10:46:46 10° NE daylight
31 Oct - 12:18:29 10° WNW 12:20:36 16° NNW 12:22:44 10° NNE daylight
31 Oct - 15:33:52 10° NNW 15:36:13 18° NNE 15:38:34 10° ENE daylight
31 Oct - 17:09:56 10° NW 17:13:16 84° SW 17:16:36 10° SE daylight
01 Nov - 09:51:02 10° SW 09:54:18 58° SE 09:57:34 10° ENE daylight
01 Nov - 11:28:36 10° WNW 11:31:13 21° NNW 11:33:49 10° NNE daylight
01 Nov - 14:44:59 10° NNW 14:46:47 14° NNE 14:48:36 10° NE daylight
01 Nov - 16:20:48 10° NW 16:24:05 53° NE 16:27:21 10° ESE daylight
01 Nov - 17:58:25 10° W 18:00:27 15° SW 18:02:29 10° SSW daylight
02 Nov - 08:02:14 10° SSW 08:05:10 30° SE 08:08:08 10° ENE daylight
02 Nov - 09:38:51 10° W 09:41:50 30° NNW 09:44:50 10° NE daylight
02 Nov - 11:18:20 10° NNW 11:19:22 11° N 11:20:24 10° N daylight
02 Nov - 12:56:06 10° N 12:57:16 11° N 12:58:26 10° NNE daylight
02 Nov - 14:31:43 10° NW 14:34:46 32° NNE 14:37:49 10° E daylight
02 Nov - 16:08:30 10° WNW 16:11:23 27° SW 16:14:16 10° SSE daylight
03 Nov - 07:13:53 10° S 07:16:05 17° SE 07:18:18 10° E daylight
03 Nov - 08:49:16 10° WSW 08:52:29 48° NW 08:55:44 10° NE daylight
03 Nov - 10:28:07 10° NW 10:29:48 13° NNW 10:31:30 10° NNE daylight
03 Nov - 12:07:23 10° N 12:07:41 10° N 12:08:00 10° N daylight
03 Nov - 13:42:40 10° NNW 13:45:21 22° NNE 13:48:03 10° E daylight
03 Nov - 15:18:58 10° WNW 15:22:14 52° SW 15:25:28 10° SE daylight
04 Nov - 07:59:51 10° SW 08:03:10 88° NW 08:06:30 10° NE daylight
04 Nov - 09:38:00 10° WNW 09:40:15 17° NNW 09:42:30 10° NNE daylight
04 Nov - 12:53:38 10° NNW 12:55:51 16° NNE 12:58:04 10° ENE daylight
04 Nov - 14:29:37 10° NW 14:32:57 83° NE 14:36:17 10° SE daylight
05 Nov - 07:10:41 10° SSW 07:13:52 48° SE 07:17:06 10° ENE daylight
05 Nov - 08:48:00 10° W 08:50:43 23° NNW 08:53:26 10° NNE daylight
05 Nov - 10:27:59 10° NNW 10:28:22 10° N 10:28:45 10° N daylight
05 Nov - 12:04:36 10° NNW 12:06:14 13° NNE 12:07:53 10° NE daylight
05 Nov - 13:40:21 10° NW 13:43:34 46° NNE 13:46:48 10° ESE daylight
05 Nov - 15:17:40 10° W 15:20:00 18° SW 15:22:19 10° S daylight
06 Nov - 06:21:49 10° S 06:24:37 26° SE 06:27:25 10° ENE daylight
06 Nov - 07:58:08 10° W 08:01:12 34° NNW 08:04:16 10° NE daylight
06 Nov - 09:37:27 10° NNW 09:38:39 12° NNW 09:39:52 10° N daylight
06 Nov - 11:15:36 10° N 11:16:33 11° N 11:17:30 10° NNE daylight
06 Nov - 12:51:08 10° NNW 12:54:05 29° NNE 12:57:03 10° E daylight
06 Nov - 14:27:45 10° WNW 14:30:46 32° SW 14:33:46 10° SSE daylight
07 Nov - 05:33:31 10° SSE 05:35:22 14° SE 05:37:13 10° E visible
07 Nov - 07:08:26 10° WSW 07:11:42 57° NW 07:14:59 10° NE daylight
07 Nov - 08:47:06 10° NW 08:48:57 14° NNW 08:50:48 10° NNE daylight
07 Nov - 12:01:56 10° NNW 12:04:30 20° NNE 12:07:03 10° ENE daylight
07 Nov - 13:38:08 10° WNW 13:41:25 62° SW 13:44:42 10° SE daylight
08 Nov - 06:18:56 10° SW 06:22:14 78° SE 06:25:33 10° NE daylight
08 Nov - 07:56:51 10° WNW 07:59:15 18° NNW 08:01:38 10° NNE daylight
08 Nov - 11:12:45 10° NNW 11:14:48 15° NNE 11:16:51 10° ENE daylight
08 Nov - 12:48:39 10° NW 12:51:58 70° NE 12:55:17 10° ESE daylight
08 Nov - 14:27:02 10° WSW 14:28:13 12° SW 14:29:23 10° SSW daylight
